Tracking 28514 objects as of 24-Feb-2024
HD Live streaming from Space Station
objects crossing your sky now

STARLINK-1257

Track STARLINK-1257 now!
10-day predictions
STARLINK-1257 is classified as:


NORAD ID: 45402
Int'l Code: 2020-019AU
Perigee: 503.8 km
Apogee: 506.6 km
Inclination: 53.0 °
Period: 94.6 minutes
Semi major axis: 6876 km
RCS: Unknown
Launch date: March 18, 2020
Source: United States (US)
Launch site: AIR FORCE EASTERN TEST RANGE (AFETR)
Your satellite tracking list
Your tracking list is empty




NASA's NSSDC Master Catalog

Two Line Element Set (TLE):
1 45402U 20019AU  24054.88830228  .00064756  00000-0  27425-2 0  9991
2 45402  53.0482 231.8351 0002063 290.9004  69.1771 15.22579324217828
Source of the keplerian elements: AFSPC